Voltar ao catálogo

FENGYUN 1C DEB

AtivoSSO
NORAD 31188·DEBRIS·🇨🇳 China

Lançado May 10, 1999 de Taiyuan Satellite Launch Center

Loading…

Próximas Passagens (próximas 24 horas)

TLE

AtualizadoSource: Space-Track

Época: Sep 12, 2026, 10:21 UTC

1 31188U 99025BJS 26255.43171962  .00001771  00000-0  75604-3 0  9990
2 31188  98.7309 326.8880 0059665 175.6294 319.6579 14.25346641  2186

Acompanhe FENGYUN 1C DEB em tempo real com AllMySat

Download on the App Store